Theta_e
291 288 287 288 289 288 287 285 286 287 290 290 289 289 291 288 287 286 286 286 286 286 287 288 288 287 288 289 290 291 293 294 297 298 298 297 294 294 294 293 293 294 296 298
288 285 290 290 289 288 285 284 284 287 289 289 288 288 289 288 287 287 286 286 286 285 286 286 286 286 286 286 287 288 290 291 294 295 295 295 293 291 290 289 289 290 291 293
286 289 290 289 286 286 284 284 284 286 287 287 286 286 286 286 287 287 287 286 286 285 285 285 285 284 284 284 284 286 287 288 289 292 293 292 291 289 287 287 286 287 288 288
287 290 290 287 286 287 283 287 287 286 285 282 285 280 285 285 284 285 285 284 285 285 285 284 284 283 283 283 284 285 285 286 286 288 287 287 285 283 284 285 286 286 286 286
290 288 288 287 289 289 287 288 287 286 284 282 282 280 283 284 283 283 284 284 284 285 284 283 283 283 283 283 283 283 284 284 284 285 286 285 283 284 284 284 284 285 285 285
290 290 290 291 289 290 288 286 285 283 281 277 282 282 281 283 285 284 284 284 284 284 284 283 283 283 282 283 282 282 283 282 283 283 283 283 283 283 283 283 283 283 283 283
286 287 288 289 286 287 286 285 279 277 277 278 280 279 283 286 286 286 285 284 284 284 283 283 282 281 282 282 282 282 282 281 282 282 282 282 282 282 282 282 282 282 282 281
283 282 287 289 288 286 284 285 280 274 274 276 280 278 284 285 285 285 286 286 285 284 283 283 282 281 281 282 282 282 281 281 281 281 281 281 281 282 281 281 281 281 281 281
284 284 287 287 288 289 285 282 285 278 269 274 280 282 285 284 283 283 283 284 284 283 283 283 283 281 280 281 281 281 281 281 281 281 281 280 281 281 280 280 281 280 281 281
288 283 286 286 288 287 286 288 282 280 273 271 278 279 281 283 283 282 282 283 284 284 283 284 283 282 281 280 281 281 281 281 281 281 281 280 280 280 280 281 280 280 280 280
289 287 283 286 284 284 284 283 282 283 280 274 272 277 283 285 284 282 283 284 284 284 284 284 284 283 282 281 280 280 280 280 280 281 280 280 280 280 281 280 280 280 280 279
290 286 280 282 285 285 285 284 284 280 277 276 276 279 285 285 285 285 284 285 285 285 285 284 284 283 281 281 280 280 280 280 281 280 280 281 281 280 280 279 279 279 278 278
290 285 277 280 282 283 283 284 284 283 281 274 276 278 285 284 283 284 284 284 285 285 284 284 283 282 282 281 280 280 279 280 280 280 280 280 280 279 279 279 279 278 277 276
295 285 284 284 283 284 281 282 283 284 276 279 280 281 283 284 284 284 284 285 284 285 285 285 283 282 282 281 280 280 279 280 280 280 279 280 279 279 279 278 277 276 275 274
291 286 283 281 283 283 283 282 282 282 284 281 284 283 283 287 287 285 286 284 284 284 283 283 283 282 281 280 280 279 279 279 279 279 279 279 279 278 277 275 274 273 273 272
288 285 283 281 282 282 280 282 283 283 284 285 282 282 286 287 285 283 284 284 283 283 283 283 283 282 281 281 280 280 279 279 279 279 279 279 277 275 274 273 272 272 271 271
286 282 282 281 278 279 279 280 281 280 280 284 279 285 280 282 283 284 284 284 285 283 283 284 283 282 282 281 281 279 279 279 277 276 275 275 274 273 272 271 270 270 269 269
284 284 284 272 276 274 278 274 280 282 282 279 278 276 283 283 281 282 282 282 281 282 283 284 284 281 281 281 281 280 279 277 277 276 274 273 272 271 270 269 268 268 268 267
285 283 274 273 274 277 274 274 278 280 279 281 282 281 279 278 278 277 280 280 281 281 282 282 283 282 280 280 279 278 276 276 276 275 274 272 271 268 268 266 266 266 265 265
282 285 283 274 273 272 275 274 277 279 272 275 283 280 275 276 271 276 278 279 280 280 280 280 280 279 278 278 277 276 275 274 274 275 274 271 269 265 265 266 265 265 264 265
276 276 279 275 275 276 278 276 278 274 277 276 277 276 275 275 278 278 278 277 278 279 279 278 278 278 278 277 275 275 273 273 275 272 270 268 267 265 264 263 264 262 261 263
275 274 274 275 273 272 277 276 276 280 278 279 277 278 277 278 278 278 278 278 278 278 278 279 277 277 277 276 275 274 273 273 270 269 267 265 263 265 263 259 260 259 259 259
274 278 277 278 277 277 279 280 280 280 280 278 278 278 279 278 277 277 278 278 278 278 278 277 276 276 276 274 274 273 273 269 267 265 263 261 261 262 261 259 260 260 259 259
274 275 274 274 275 276 278 279 280 279 279 279 279 278 277 277 277 278 277 277 277 276 275 273 272 272 274 271 272 274 268 267 264 262 261 260 260 261 260 262 262 260 260 260
276 275 272 272 275 276 278 278 279 279 280 279 278 278 278 277 277 277 277 276 275 275 273 271 273 274 274 270 269 266 266 264 262 261 262 262 261 260 262 262 262 262 263 261
275 274 273 271 277 277 278 280 280 279 279 278 278 276 276 277 277 276 275 275 274 274 270 270 271 270 268 265 264 262 262 263 262 261 261 261 261 261 261 261 261 265 268 270
Wind_Speed
2 4 9 13 9 3 6 4 5 3 3 3 6 6 6 4 5 6 5 5 5 6 5 8 9 10 10 12 13 14 12 11 7 6 6 8 8 8 10 10 15 14 13 12
4 8 8 5 5 4 4 4 6 5 3 3 5 9 3 1 2 3 6 5 5 4 5 7 8 8 9 8 8 9 9 9 8 4 4 5 7 9 9 9 13 15 15 15
9 4 8 8 4 6 5 7 5 6 1 2 1 7 4 1 3 4 3 4 3 5 5 5 8 10 10 12 12 11 11 11 10 8 7 7 6 6 8 9 10 12 13 13
6 3 6 4 6 8 6 9 7 5 4 5 1 6 4 4 4 5 6 6 5 4 3 4 5 6 8 8 8 10 10 11 11 11 11 13 10 10 6 8 7 9 12 13
8 8 6 5 8 8 6 6 7 4 4 2 3 1 8 4 7 9 8 6 6 5 5 6 5 5 5 6 7 7 9 12 11 11 10 10 12 8 6 7 10 10 10 12
4 1 6 8 3 6 9 7 7 5 3 2 8 8 5 7 8 6 9 9 10 7 6 5 4 5 5 4 6 7 9 10 10 10 10 11 11 9 8 8 8 7 7 8
1 5 3 5 6 3 2 7 1 2 1 7 2 3 8 5 5 5 16 15 11 8 7 6 6 5 5 3 4 5 8 9 8 10 10 10 10 11 12 8 7 7 6 7
7 6 12 8 8 10 8 8 7 9 5 3 2 7 7 2 3 1 6 13 12 10 8 7 7 6 6 6 8 6 6 8 7 7 8 7 8 7 7 8 6 5 6 6
8 7 1 2 4 7 7 7 4 8 2 3 5 5 3 2 2 3 9 12 14 11 11 10 7 7 6 6 6 7 7 7 6 7 6 7 7 8 8 8 6 6 5 5
7 2 1 3 3 3 4 8 3 3 3 6 3 4 5 6 8 6 10 15 13 11 10 9 8 8 7 5 5 6 6 8 7 7 6 7 7 7 7 6 7 7 6 6
6 4 1 4 7 11 4 4 2 4 4 6 2 6 6 8 10 15 13 13 14 13 12 10 9 8 7 6 7 7 7 8 7 6 6 7 7 6 6 7 6 6 5 5
11 5 5 8 2 2 2 8 8 6 6 2 2 7 1 4 8 12 13 14 12 12 13 11 10 9 9 10 8 9 7 7 7 7 6 7 7 6 6 6 5 5 6 5
12 5 3 5 3 1 6 6 4 5 4 9 6 6 1 1 4 6 11 11 11 10 9 9 9 12 12 10 10 9 8 9 7 7 7 6 6 6 5 5 5 5 4 3
13 5 10 16 6 8 8 8 7 7 4 7 11 5 6 6 8 7 8 9 10 10 11 11 9 11 11 10 11 10 9 8 8 7 7 7 6 5 5 5 4 3 3 4
7 12 5 1 2 6 6 10 13 14 13 10 9 13 10 12 13 13 11 7 9 9 8 9 10 10 10 10 9 8 8 8 8 8 7 7 6 6 6 4 3 3 3 3
1 5 4 5 0 1 3 10 11 12 11 14 4 10 7 6 6 7 9 10 9 8 8 8 7 8 11 12 11 10 10 9 8 9 9 7 6 6 5 3 2 2 2 2
8 7 7 7 4 4 6 10 12 6 5 12 12 12 6 5 7 8 9 11 14 7 8 8 8 8 8 11 11 11 11 8 9 7 6 7 7 6 5 3 3 2 2 2
7 6 3 5 4 9 3 0 5 10 5 4 2 4 10 5 2 3 4 8 7 8 8 7 6 5 7 6 8 6 7 8 8 7 7 6 7 6 5 4 3 2 1 2
3 5 4 6 5 6 4 6 8 10 9 10 9 5 5 5 5 3 6 6 7 8 7 6 6 6 5 7 6 6 6 6 7 9 9 8 7 6 5 4 3 2 1 1
1 2 5 4 6 11 2 1 3 5 5 8 11 7 9 7 3 5 6 6 8 7 5 7 7 4 6 6 6 6 6 6 9 9 9 9 7 6 6 4 4 3 1 1
4 2 12 5 5 5 6 6 4 6 6 3 6 5 8 6 6 6 6 5 5 6 8 5 7 8 10 7 7 8 6 11 8 7 8 7 6 6 5 4 3 2 1 1
6 8 4 3 2 9 7 5 9 5 2 5 6 7 9 6 7 7 8 7 7 8 8 9 8 9 7 7 7 7 10 6 8 9 8 7 6 4 5 4 2 1 1 2
5 7 6 8 7 0 15 3 5 5 7 6 7 7 8 8 7 7 5 6 7 7 7 6 8 8 6 7 9 8 7 9 9 8 7 6 5 5 5 4 3 2 2 2
4 3 3 3 3 3 11 2 3 4 5 5 5 7 8 8 7 6 5 6 7 5 8 5 6 7 8 7 8 9 8 9 9 8 7 6 5 5 4 3 3 3 3 3
4 7 6 2 2 1 5 7 5 6 5 5 4 7 9 8 6 7 6 7 7 7 3 4 8 8 10 6 7 5 7 9 8 6 6 5 4 4 4 4 4 4 4 4
6 7 6 5 10 6 6 10 8 8 9 9 9 6 5 8 9 6 7 7 5 5 3 4 6 6 4 5 6 6 7 8 9 7 5 5 4 4 4 3 3 8 11 13
Wind_Direction
25 119 209 196 196 129 139 169 218 215 235 163 222 251 283 111 99 129 134 113 82 48 9 23 17 15 20 30 33 28 39 24 43 62 75 69 69 57 52 45 42 40 37 39
57 229 210 137 139 152 140 159 246 292 218 151 267 257 240 71 148 168 157 141 119 101 45 23 16 21 37 44 46 56 56 51 55 75 93 96 96 72 65 53 46 41 40 37
172 214 144 139 147 170 205 191 197 214 42 198 341 276 214 65 99 115 126 134 135 136 107 39 26 20 12 22 17 30 40 45 42 50 88 90 85 74 60 47 51 41 46 46
227 232 160 162 188 164 215 198 172 166 128 232 142 274 281 178 178 188 172 170 165 160 121 87 50 38 21 23 24 34 45 51 50 57 71 74 83 88 71 72 65 54 46 47
231 170 178 183 203 160 233 133 159 139 150 118 224 139 259 154 227 198 199 193 184 187 164 131 105 70 33 15 40 40 55 56 51 61 77 89 94 96 95 83 69 52 43 46
237 161 163 194 126 164 151 80 56 57 96 256 217 180 247 203 207 158 163 184 187 185 179 146 121 96 67 16 50 58 69 60 54 64 65 87 97 95 89 72 67 54 47 42
180 213 191 143 96 67 140 114 54 345 294 232 44 163 249 223 200 183 182 178 174 180 180 167 153 140 122 110 64 67 83 79 66 78 81 89 92 88 85 82 78 71 62 51
170 268 169 186 176 174 189 166 166 197 200 245 45 230 252 75 68 315 161 167 169 178 180 183 173 157 154 173 139 126 103 102 94 92 92 92 95 97 95 85 84 74 70 61
173 264 83 120 144 145 185 197 160 106 42 65 216 283 264 109 90 111 153 166 181 184 186 181 176 168 180 173 156 152 138 124 122 122 120 105 102 97 101 103 97 84 69 63
204 180 268 154 107 33 177 154 96 2 193 248 249 251 232 215 205 180 182 189 185 187 185 184 183 176 185 178 165 156 157 150 155 146 138 124 120 116 117 107 89 83 78 62
150 144 206 131 209 177 156 175 69 130 150 184 231 248 209 195 176 192 198 193 187 190 191 191 185 183 173 175 174 172 175 166 165 165 149 139 135 126 108 92 83 82 75 52
189 136 167 204 273 297 195 188 164 162 212 251 165 248 222 249 199 182 190 194 194 191 192 188 184 177 178 188 179 186 187 177 179 173 159 148 137 129 116 105 97 78 59 42
180 195 101 355 326 308 219 194 148 102 80 191 166 247 138 179 166 196 177 185 189 194 189 189 185 191 191 190 185 188 190 194 181 171 164 160 155 144 121 105 90 76 64 66
166 166 199 221 187 143 188 187 181 165 169 176 228 207 214 193 192 184 193 198 188 190 195 200 198 199 197 192 189 191 194 191 177 177 177 172 166 151 137 131 120 103 73 53
155 213 172 212 244 159 173 172 183 201 206 199 225 227 195 196 196 197 197 168 177 195 193 199 207 206 195 195 199 192 198 187 181 181 186 187 162 150 147 137 121 102 76 47
13 204 138 196 158 317 203 221 190 200 215 235 210 249 182 199 109 143 182 175 189 200 209 216 210 192 198 200 200 197 200 196 177 194 199 172 154 146 146 138 131 122 88 41
165 145 157 202 156 133 265 215 189 175 195 190 210 229 161 181 183 179 189 187 205 197 214 208 205 203 197 196 193 199 199 180 189 188 176 166 156 155 158 159 190 155 81 29
158 156 166 131 157 219 213 201 196 198 195 186 90 194 182 183 164 168 191 186 197 211 218 221 215 209 206 190 193 189 168 182 182 185 175 163 161 163 164 182 188 138 134 8
191 131 130 157 218 333 145 205 149 164 245 190 209 194 160 115 95 266 183 182 195 200 217 222 211 202 185 195 192 181 173 172 171 192 186 175 162 165 174 193 188 161 116 338
271 239 183 157 186 204 248 192 157 108 282 211 192 190 154 139 137 242 189 187 218 222 205 208 200 186 190 207 164 161 183 176 204 195 183 156 157 169 181 188 193 159 181 280
153 177 209 179 205 272 216 183 161 133 247 167 172 134 148 178 185 174 162 199 211 206 207 195 186 197 208 165 157 189 169 207 200 143 142 147 156 165 169 181 182 163 261 320
165 158 196 110 167 250 143 82 167 175 54 161 166 170 182 185 162 170 183 199 194 211 203 204 196 207 200 166 166 197 205 185 150 147 150 155 155 178 162 171 184 216 256 295
210 188 182 191 207 209 180 125 205 157 149 186 155 182 183 173 198 176 207 230 231 230 232 201 200 216 202 184 188 199 215 153 151 150 152 155 163 178 170 178 197 227 203 261
256 161 184 102 198 201 204 183 164 186 150 158 179 168 159 188 192 197 215 237 240 225 227 191 175 222 242 201 200 217 153 150 149 153 159 164 178 185 190 198 208 218 243 255
181 128 140 9 351 352 249 234 193 215 147 172 182 176 195 192 209 211 228 228 230 235 214 169 200 214 235 181 200 158 148 143 151 153 166 177 186 195 202 217 223 233 231 208
175 156 166 199 198 167 205 209 195 191 204 198 194 209 210 186 214 200 230 224 209 232 203 211 223 227 234 168 162 158 149 152 151 164 175 187 187 193 212 224 262 263 263 269